Location: Newark
(36.0797°N, 3.9744°E)
Time: 05:32:54
(UTC+00:00)

Explorer 11/Cluster Stage 4 - All Passes

Search period start: 13 December 2019 00:00
Search period end: 23 December 2019 00:00
Orbit: 467 x 1259 km, 28.8° (Epoch: 12 December)

Date Brightness Start Highest point End Pass type
(mag) Time Alt. Az. Time Alt. Az. Time Alt. Az.
13 Dec - 06:35:27 10° S 06:40:02 16° SSE 06:44:23 10° ESE daylight
13 Dec - 08:21:51 10° SW 08:28:35 33° SSE 08:34:25 10° ESE daylight
13 Dec - 10:10:31 10° WSW 10:17:12 43° S 10:22:39 10° ESE daylight
13 Dec - 11:59:57 10° WSW 12:05:31 34° SSW 12:10:03 10° SE daylight
13 Dec - 13:50:36 10° WSW 13:53:12 14° SSW 13:55:33 10° S daylight
14 Dec - 06:23:45 10° SSW 06:29:07 19° SSE 06:34:11 10° ESE daylight
14 Dec - 08:10:39 10° SW 08:17:44 36° SSE 08:23:54 10° ESE daylight
14 Dec - 09:59:28 10° WSW 10:06:24 45° S 10:12:06 10° ESE daylight
14 Dec - 11:49:01 10° WSW 11:54:45 33° SSW 11:59:27 10° SE daylight
14 Dec - 13:40:06 10° SW 13:42:24 13° SSW 13:44:33 10° S daylight
15 Dec - 06:12:14 10° SSW 06:18:10 22° SSE 06:23:49 10° ESE visible
15 Dec - 07:59:29 10° SW 08:06:50 39° SSE 08:13:18 10° ESE daylight
15 Dec - 09:48:26 10° WSW 09:55:35 46° S 10:01:31 10° ESE daylight
15 Dec - 11:38:07 10° WSW 11:43:58 32° SSW 11:48:48 10° SE daylight
15 Dec - 13:29:45 10° SW 13:31:36 12° SSW 13:33:21 10° SSW daylight
16 Dec - 06:00:51 10° SSW 06:07:12 25° SSE 06:13:19 10° ESE visible
16 Dec - 07:48:23 10° WSW 07:55:56 42° S 08:02:40 10° ESE daylight
16 Dec - 09:37:25 10° WSW 09:44:45 47° S 09:50:54 10° ESE daylight
16 Dec - 11:27:11 10° WSW 11:33:09 31° SSW 11:38:07 10° SE daylight
16 Dec - 13:19:44 10° SW 13:20:46 10° SSW 13:21:46 10° SSW daylight
17 Dec - 04:07:12 10° SSE 04:07:54 10° SE 04:08:37 10° SE visible
17 Dec - 05:49:33 10° SSW 05:56:14 28° SSE 06:02:45 10° ESE visible
17 Dec - 07:37:18 10° WSW 07:45:01 45° S 07:52:00 10° ESE daylight
17 Dec - 09:26:25 10° WSW 09:33:53 47° S 09:40:15 10° ESE daylight
17 Dec - 11:16:16 10° WSW 11:22:17 29° SSW 11:27:23 10° SE daylight
18 Dec - 03:54:05 10° SSE 03:56:55 12° SSE 03:59:48 10° SE visible
18 Dec - 05:38:21 10° SW 05:45:15 31° SSE 05:52:05 10° ESE visible
18 Dec - 07:26:16 10° WSW 07:34:06 47° S 07:41:18 10° ESE daylight
18 Dec - 09:15:25 10° WSW 09:23:00 47° S 09:29:33 10° ESE daylight
18 Dec - 11:05:23 10° WSW 11:11:25 28° SSW 11:16:35 10° SSE daylight
19 Dec - 03:42:10 10° S 03:45:55 14° SSE 03:49:48 10° ESE visible
19 Dec - 05:27:14 10° SW 05:34:16 33° SSE 05:41:22 10° E visible
19 Dec - 07:15:16 10° WSW 07:23:09 49° S 07:30:33 10° ESE daylight
19 Dec - 09:04:27 10° W 09:12:06 46° S 09:18:49 10° ESE daylight
19 Dec - 10:54:30 10° WSW 11:00:31 26° SSW 11:05:45 10° SSE daylight
20 Dec - 03:30:34 10° S 03:34:56 16° SSE 03:39:29 10° ESE visible
20 Dec - 05:16:11 10° SW 05:23:16 36° SSE 05:30:36 10° E visible
20 Dec - 07:04:18 10° WSW 07:12:12 50° S 07:19:46 10° ESE daylight
20 Dec - 08:53:30 10° W 09:01:11 45° SSW 09:08:03 10° ESE daylight
20 Dec - 10:43:40 10° WSW 10:49:35 24° SSW 10:54:50 10° SSE daylight
21 Dec - 03:19:12 10° S 03:23:56 18° SSE 03:28:58 10° ESE visible
21 Dec - 05:05:11 10° SW 05:12:18 38° SSE 05:19:46 10° E visible
21 Dec - 06:53:23 10° WSW 07:01:15 51° S 07:08:57 10° ESE daylight
21 Dec - 08:42:34 10° W 08:50:14 43° SSW 08:57:13 10° SE daylight
21 Dec - 10:32:52 10° WSW 10:38:38 23° SSW 10:43:49 10° SSE daylight
22 Dec - 03:07:59 10° SSW 03:12:57 20° SSE 03:18:22 10° ESE visible
22 Dec - 04:54:15 10° SW 05:01:20 41° SSE 05:08:55 10° E visible
22 Dec - 06:42:29 10° WSW 06:50:18 52° S 06:58:06 10° ESE daylight
22 Dec - 08:31:40 10° W 08:39:16 41° SSW 08:46:21 10° SE daylight
22 Dec - 10:22:08 10° WSW 10:27:40 21° SSW 10:32:44 10° SSE daylight
